• Join FlightAware (Why Join?)
  • Login
  • US Flag 
11:46AM EST


 

Airport Tracker/Info


-or-


 

Live Flight TrackerFlight Track Log ✈ ASQ4490 ✈ 17-Jun-2013 ✈ MMTC / TRC - KIAH

Flight Track Log - Related Links

Times and Time Zones

All times are in EDT time to prevent confusion due to time zone crossing. See the ASQ4490 flight status page for this flight to view local times or setup timezone preferences in your user account.

Time Position Orientation Groundspeed Altitude Reporting Facility
EDT Latitude Longitude Course Direction KTS MPH feet Rate Location/Type
08:38AM 25.8904 -99.9516 47° Northeast  Level FlightAware Approximate
08:38AM 26.2950 -99.6633 48° Northeast 450 518 35,000  Level Houston Center
08:39AM 25.9471 -99.8831 48° Northeast  Level FlightAware Approximate
08:39AM 26.3442 -99.5372 66° East 447 514 35,000  Level Houston Center
08:40AM 26.0033 -99.8141 48° Northeast  Level FlightAware Approximate
08:40AM 26.4036 -99.3833 67° East 450 518 35,000  Level Houston Center
08:41AM 26.0595 -99.7451 48° Northeast  Level FlightAware Approximate
08:41AM 26.4647 -99.2628 60° Northeast 452 520 35,000  Level Houston Center
08:42AM 26.1157 -99.6760 48° Northeast  Level FlightAware Approximate
08:42AM 26.5486 -99.1647 46° Northeast 442 509 35,000  Level Houston Center
08:43AM 26.1719 -99.6069 48° Northeast  Level FlightAware Approximate
08:43AM 26.6358 -99.0711 44° Northeast 439 505 35,000  Level Houston Center
08:44AM 26.7281 -98.9839 40° Northeast 438 504 35,000  Level Houston Center
08:45AM 26.8200 -98.8964 40° Northeast 436 502 35,000  Level Houston Center
08:46AM 26.9103 -98.8075 41° Northeast 435 501 35,000  Level Houston Center
08:47AM 27.0200 -98.7008 41° Northeast 437 503 35,000  Level Houston Center
08:48AM 27.1114 -98.6117 41° Northeast 437 503 35,000  Level Houston Center
08:49AM 27.2028 -98.5228 41° Northeast 438 504 35,000  Level Houston Center
08:50AM 27.2944 -98.4339 41° Northeast 438 504 35,000  Level Houston Center
08:51AM 27.3861 -98.3428 41° Northeast 441 507 35,000  Level Houston Center
08:52AM 27.4958 -98.2339 41° Northeast 442 509 35,000  Level Houston Center
08:53AM 27.5878 -98.1439 41° Northeast 439 505 35,000  Level Houston Center
08:54AM 27.6797 -98.0542 41° Northeast 439 505 35,000  Level Houston Center
08:55AM 27.7703 -97.9642 41° Northeast 437 503 35,000  Level Houston Center
08:56AM 27.8606 -97.8744 41° Northeast 434 499 35,000  Level Houston Center
08:57AM 27.9514 -97.7836 41° Northeast 435 501 35,000  Level Houston Center
08:58AM 28.0458 -97.6906 41° Northeast 434 499 35,000  Level Houston Center
08:59AM 28.1358 -97.6000 42° Northeast 434 499 35,000  Level Houston Center
09:00AM 28.2461 -97.4917 41° Northeast 435 501 35,000  Level Houston Center
09:01AM 28.3353 -97.4003 42° Northeast 434 499 35,000  Level Houston Center
09:02AM 28.4281 -97.3092 41° Northeast 440 506 35,000 -48 Level Houston Center
09:03AM 28.5178 -97.2172 42° Northeast 436 502 34,900  Descending Houston Center
09:04AM 28.6081 -97.1261 42° Northeast 437 503 35,000 -585 Climbing Houston Center
09:05AM 28.7000 -97.0356 41° Northeast 438 504 33,700 -2,049 Descending Houston Center
09:06AM 28.8106 -96.9214 42° Northeast 449 517 30,800 -2,565 Descending Houston Center
09:08AM 28.9064 -96.8236 42° Northeast 461 531 28,400 -2,323 Descending Houston Center
09:09AM 28.9992 -96.7292 42° Northeast 452 520 26,000 -2,371 Descending Houston Center
09:10AM 29.0886 -96.6389 41° Northeast 437 503 23,500 -2,371 Descending Houston Center
09:11AM 29.1742 -96.5511 42° Northeast 424 488 21,100 -2,615 Descending Houston Center
09:11AM 29.2061 -96.5178 42° Northeast 406 467 20,100 -2,806 Descending Houston Center
09:12AM 29.2697 -96.4528 42° Northeast 394 453 18,200 -2,361 Descending Houston Center
09:12AM 29.2911 -96.4319 40° Northeast 368 423 17,700 -1,935 Descending Houston Center
09:13AM 29.3478 -96.3722 43° Northeast 382 440 16,200 -1,872 Descending Houston Center
09:14AM 29.4300 -96.2869 42° Northeast 397 457 14,300 -2,148 Descending Houston Center
09:14AM 29.4628 -96.2550 40° Northeast 408 470 13,300 -1,742 Descending Houston Center
09:15AM 29.5094 -96.2050 43° Northeast 389 448 12,500 -1,279 Descending Houston Center
09:15AM 29.5358 -96.1750 45° Northeast 360 414 12,000 -1,397 Descending Houston Center
09:16AM 29.5869 -96.0853 57° Northeast 368 423 10,800 -1,143 Descending Houston Center
09:17AM 29.6333 -95.9939 60° Northeast 369 425 10,000 -806 Descending Houston Center
09:17AM 29.6481 -95.9678 57° Northeast 365 420 9,900  Descending Houston Center
09:18AM 29.6794 -95.9025 61° Northeast 366 421 10,000 98 Climbing Houston Center
09:18AM 29.6994 -95.8608 61° Northeast 371 427 10,000  Level Houston Center
09:19AM 29.7308 -95.7972 60° Northeast 373 429 10,000  Level Houston Center
09:20AM 29.7811 -95.7000 59° Northeast 356 410 10,000 -919 Level Houston Center
09:21AM 29.8283 -95.6044 60° Northeast 289 333 8,100 -1,742 Descending Houston Center
09:22AM 29.8681 -95.5236 60° Northeast 289 333 6,400 -1,016 Descending Houston Center
09:23AM 29.8950 -95.4431 69° East 277 319 6,000 -194 Descending Houston Center
09:24AM 29.8961 -95.3531 89° East 280 322 6,000  Level Houston Center
09:25AM 29.8967 -95.2639 90° East 280 322 6,000 -194 Level Houston Center
09:26AM 29.8969 -95.1872 90° East 246 283 5,600 -387 Descending Houston Center